{"data":{"norad_id":47289,"intl_designator":"2020-100AH","name":"ONEWEB-0143","alt_names":[],"object_type":"PAYLOAD","status":"ACTIVE","operator":null,"country":"UK","launch_date":"2020-12-18","launch_site_code":"VOSTO","launch_vehicle":null,"mission":null,"orbit_class":"UNKNOWN","rcs_meters":null,"size_class":null,"mass_kg":null,"dimensions":null,"purposes":["comms"],"wikipedia_slug":null,"has_3d_model":false,"image_url":null,"decayed_at":null,"tle_current":{"epoch":"2026-05-25T01:35:27.423168Z","epoch_age_seconds":65357,"freshness":"FRESH","line1":"1 47289U 20100AH  26145.06628962 -.00000377  00000+0 -10831-2 0  9993","line2":"2 47289  87.8958 355.2653 0001806  86.4538 273.6797 13.12442085261612","mean_motion":13.12442085,"eccentricity":0.0001806,"inclination_deg":87.8958,"raan_deg":355.2653,"arg_perigee_deg":86.4538,"mean_anomaly_deg":273.6797,"bstar":-0.0010831,"rev_number":26161,"period_min":109.71912714914,"perigee_km":1212.3557290047,"apogee_km":1215.0979102163,"semimajor_km":7591.8638196105,"source":"CELESTRAK","updated_at":"2026-05-25T13:38:22.386129Z"}}}